[[{"header":{"parameterUnit":"m.s-1","parameterCategory":1,"la1":30.2991,"la2":30.254,"lo1":-89.0895,"lo2":-89.0444,"dy":0.0017,"dx":0.0017,"nx":28,"ny":28,"refTime":"2024-04-21T09:00:00:Z","depth":0,"parameterNumber":2,"parameterNumberName":"U-component_of_WINDS"},"data":[0,0,0,0,0,0,0,0,0,0,0,0,0,0,0,0,0,0,0,0,0,0,0,0,0,0,0,0,0,0,0,0,0,0,0,0,0,0,0,0,0,0,0,0,0,0,0,0,0,0,0,0,0,0,0,0,0,0,-0.5468,-0.5467,0,-0.5438,-0.5438,-0.5437,-0.5415,-0.5415,-0.5415,-0.5415,-0.5383,-0.5383,-0.5382,0,0,0,0,0,0,0,0,0,0,0,0,0,-0.5503,-0.5503,-0.5468,-0.5467,-0.5467,-0.5438,-0.5438,-0.5437,-0.5415,-0.5415,-0.5415,-0.5415,-0.5384,-0.5383,-0.5382,0,0,0,0,0,0,0,0,0,0,0,0,0,-0.5482,-0.5502,-0.5468,-0.5452,-0.5451,-0.5438,-0.5438,-0.5437,-0.5415,-0.5415,-0.5415,-0.5414,-0.5384,-0.5383,-0.5382,-0.5382,0,0,-0.5379,-0.5379,0,0,0,0,0,0,0,0,-0.5483,-0.5481,-0.5455,-0.5453,-0.5452,-0.543,-0.5439,-0.5419,-0.5415,-0.5429,-0.5415,-0.5414,-0.5399,-0.5397,-0.5392,-0.538,-0.5379,-0.5379,-0.5378,-0.5378,-0.5378,0,0,0,0,0,0,0,-0.5485,-0.5482,-0.5456,-0.5455,-0.5453,-0.5446,-0.5443,-0.5435,-0.5416,-0.5428,-0.5426,-0.5423,-0.5398,-0.5393,-0.5391,-0.5379,-0.5379,-0.5378,-0.5377,-0.5377,-0.5364,-0.5364,0,0,0,0,0,0,-0.5489,-0.5483,-0.5457,-0.5455,-0.5467,-0.5446,-0.5442,-0.5437,-0.5416,-0.5412,-0.5423,-0.5422,-0.5395,-0.5392,-0.539,-0.5388,-0.5378,-0.5377,-0.5376,-0.5364,-0.5364,-0.5364,0,0,0,0,0,0,-0.549,-0.5487,-0.5458,-0.5469,-0.5464,-0.5446,-0.544,-0.5437,-0.5432,-0.5412,-0.5409,-0.5421,-0.5394,-0.5391,-0.5384,-0.5386,-0.5377,-0.5376,-0.5364,-0.5364,-0.5364,-0.5384,0,0,0,0,0,0,-0.5491,-0.5487,-0.5487,-0.5469,-0.5464,-0.5453,-0.544,-0.5436,-0.543,-0.5428,-0.541,-0.5407,-0.5394,-0.5385,-0.5383,-0.5385,-0.5375,-0.5363,-0.5364,-0.5364,-0.5383,-0.5385,-0.5386,0,0,0,0,0,-0.5492,-0.5494,-0.5488,-0.5484,-0.5464,-0.5453,-0.545,-0.5436,-0.543,-0.543,-0.5418,-0.5407,-0.5386,-0.5385,-0.5382,-0.5383,-0.5363,-0.5364,-0.5364,-0.5382,-0.5384,-0.5386,0,0,0,0,0,0,-0.5513,-0.5491,-0.5484,-0.548,-0.5469,-0.545,-0.5449,-0.5439,-0.5429,-0.5428,-0.541,-0.5406,-0.54,-0.5391,-0.539,-0.5381,-0.5373,-0.5373,-0.5388,-0.539,-0.5392,-0.5394,-0.5374,0,0,0,0,0,-0.5518,-0.5511,-0.5492,-0.549,-0.5485,-0.5468,-0.5463,-0.5453,-0.544,-0.5435,-0.5422,-0.541,-0.54,-0.5395,-0.5385,-0.5381,-0.5376,-0.5381,-0.5382,-0.5384,-0.5384,-0.538,-0.5382,-0.5366,-0.5366,-0.5366,0,0,-0.5526,-0.5513,-0.551,-0.5494,-0.5484,-0.5477,-0.5464,-0.5458,-0.5452,-0.5434,-0.5426,-0.5416,-0.5401,-0.5395,-0.5392,-0.5387,-0.5387,-0.5385,-0.5386,-0.5385,-0.5381,-0.5383,-0.5384,-0.5366,-0.5366,-0.5366,0,0,-0.5538,-0.5528,-0.5526,-0.5516,-0.5501,-0.5489,-0.5488,-0.5471,-0.5463,-0.5455,-0.5441,-0.5434,-0.5418,-0.5408,-0.5401,-0.5408,-0.5397,-0.5405,-0.5414,-0.5411,-0.5412,-0.5413,-0.5415,-0.5416,-0.5405,-0.5405,-0.5405,0,-0.5551,-0.5541,-0.5525,-0.5519,-0.5512,-0.5495,-0.5492,-0.5483,-0.5465,-0.5461,-0.5456,-0.5435,-0.5424,-0.5415,-0.5417,-0.5411,-0.5409,-0.5407,-0.5413,-0.5414,-0.5415,-0.5416,-0.5417,-0.5406,-0.5406,-0.5406,-0.5406,0,-0.5557,-0.5549,-0.5549,-0.5532,-0.5525,-0.5521,-0.5504,-0.5498,-0.5488,-0.5477,-0.5468,-0.5454,-0.5441,-0.5438,-0.5428,-0.5427,-0.5425,-0.5417,-0.5408,-0.5417,-0.5419,-0.5419,-0.5408,-0.5407,-0.5407,-0.5407,0,0,-0.5582,-0.5557,-0.5557,-0.5549,-0.553,-0.5524,-0.5518,-0.5505,-0.5501,-0.5489,-0.5483,-0.5469,-0.5462,-0.5453,-0.5442,-0.5439,-0.5445,-0.5431,-0.5431,-0.5434,-0.5442,-0.5448,-0.5449,-0.5438,-0.5438,-0.5438,-0.5443,0,-0.5591,-0.558,-0.5566,-0.5559,-0.5552,-0.5535,-0.553,-0.5518,-0.5507,-0.5498,-0.5486,-0.5476,-0.5467,-0.5462,-0.5458,-0.5445,-0.5446,-0.5444,-0.5431,-0.5431,-0.5436,-0.545,-0.5456,-0.5462,-0.5443,-0.5443,-0.5443,0,-0.5601,-0.559,-0.5583,-0.5564,-0.5561,-0.5556,-0.5543,-0.5535,-0.5521,-0.5513,-0.5503,-0.5491,-0.5482,-0.5475,-0.5463,-0.5462,-0.5456,-0.5448,-0.5448,-0.5446,-0.5438,-0.5448,-0.5463,-0.5464,-0.5444,-0.5444,-0.5444,0,-0.562,-0.5603,-0.5597,-0.559,-0.5569,-0.5566,-0.5556,-0.5541,-0.5534,-0.5522,-0.5517,-0.5504,-0.5497,-0.5487,-0.5471,-0.5467,-0.5461,-0.5452,-0.5453,-0.5454,-0.5453,-0.5453,-0.5467,-0.5449,-0.5449,-0.5449,-0.5449,0,-0.5632,-0.5628,-0.5605,-0.5601,-0.5596,-0.5578,-0.5574,-0.5563,-0.5549,-0.5542,-0.5527,-0.552,-0.55,-0.5491,-0.5478,-0.547,-0.5467,-0.5459,-0.5456,-0.5461,-0.5462,-0.5456,-0.5456,-0.5449,-0.5449,-0.5449,-0.5449,0,-0.5652,-0.5637,-0.5628,-0.5608,-0.5603,-0.56,-0.5582,-0.5577,-0.5565,-0.5556,-0.5553,-0.5534,-0.5522,-0.5505,-0.5488,-0.548,-0.5473,-0.5468,-0.5478,-0.5476,-0.5478,-0.5478,-0.549,-0.549,-0.5472,-0.5472,-0.5472,0,-0.5661,-0.5657,-0.5637,-0.5631,-0.5622,-0.5613,-0.5606,-0.5588,-0.5581,-0.5563,-0.556,-0.5547,-0.5536,-0.5518,-0.5502,-0.5489,-0.5483,-0.5488,-0.5481,-0.5485,-0.5482,-0.5483,-0.5482,-0.5489,-0.549,-0.549,-0.549,0,-0.5678,-0.567,-0.566,-0.5647,-0.5638,-0.5627,-0.5616,-0.5612,-0.5591,-0.5584,-0.5572,-0.5563,-0.5545,-0.5532,-0.5517,-0.5506,-0.5494,-0.5492,-0.5492,-0.5497,-0.5503,-0.5499,-0.5482,-0.5492,-0.5492,-0.5492,-0.5492,-0.5492,-0.5692,-0.5688,-0.5673,-0.5662,-0.5651,-0.564,-0.5634,-0.5621,-0.5611,-0.5595,-0.5585,-0.5573,-0.5557,-0.5535,-0.5525,-0.5515,-0.551,-0.551,-0.551,-0.551,-0.5511,-0.5504,-0.5512,-0.5512,-0.5512,-0.5512,-0.5512,0,-0.5708,-0.5697,-0.5687,-0.5671,-0.5662,-0.5652,-0.5638,-0.5631,-0.5621,-0.5607,-0.5596,-0.5582,-0.5569,-0.5552,-0.5537,-0.5532,-0.5526,-0.5529,-0.5529,-0.5527,-0.5517,-0.5518,-0.5534,-0.5534,-0.5534,-0.5534,-0.5534,-0.5534,-0.5715,-0.5707,-0.5697,-0.5684,-0.5673,-0.5661,-0.5654,-0.5643,-0.5632,-0.5617,-0.5606,-0.5595,-0.5579,-0.5564,-0.5551,-0.5546,-0.5541,-0.5545,-0.5539,-0.553,-0.5528,-0.5526,-0.5527,-0.5545,-0.5545,-0.555,-0.555,-0.555]},{"header":{"parameterUnit":"m.s-1","parameterCategory":1,"la1":30.2991,"la2":30.254,"lo1":-89.0895,"lo2":-89.0444,"dy":0.0017,"dx":0.0017,"nx":28,"ny":28,"refTime":"2024-04-21T09:00:00:Z","depth":0,"parameterNumber":3,"parameterNumberName":"V-component_of_WINDS"},"data":[0,0,0,0,0,0,0,0,0,0,0,0,0,0,0,0,0,0,0,0,0,0,0,0,0,0,0,0,0,0,0,0,0,0,0,0,0,0,0,0,0,0,0,0,0,0,0,0,0,0,0,0,0,0,0,0,0,0,-3.7103,-3.7104,0,-3.7154,-3.7155,-3.7155,-3.7171,-3.717,-3.717,-3.717,-3.7218,-3.7219,-3.7221,0,0,0,0,0,0,0,0,0,0,0,0,0,-3.7016,-3.7017,-3.7103,-3.7104,-3.7104,-3.7154,-3.7155,-3.7156,-3.7171,-3.717,-3.717,-3.717,-3.7217,-3.7219,-3.7221,0,0,0,0,0,0,0,0,0,0,0,0,0,-3.7059,-3.7018,-3.7103,-3.7118,-3.712,-3.7154,-3.7155,-3.7156,-3.7171,-3.717,-3.717,-3.717,-3.7217,-3.7219,-3.7221,-3.7243,0,0,-3.7228,-3.7229,0,0,0,0,0,0,0,0,-3.7056,-3.7062,-3.7115,-3.7117,-3.7119,-3.7156,-3.7142,-3.7185,-3.7171,-3.7151,-3.717,-3.7169,-3.7197,-3.7201,-3.7211,-3.7245,-3.7247,-3.7228,-3.723,-3.7231,-3.7231,0,0,0,0,0,0,0,-3.7053,-3.706,-3.7123,-3.7116,-3.7118,-3.7121,-3.7127,-3.715,-3.7176,-3.7153,-3.7154,-3.716,-3.7198,-3.7209,-3.7213,-3.7248,-3.7228,-3.723,-3.7232,-3.7233,-3.7304,-3.7304,0,0,0,0,0,0,-3.7048,-3.7057,-3.7122,-3.7125,-3.7086,-3.7123,-3.713,-3.7144,-3.7175,-3.718,-3.7161,-3.7161,-3.7205,-3.721,-3.7214,-3.7243,-3.7231,-3.7233,-3.7234,-3.7303,-3.7304,-3.7304,0,0,0,0,0,0,-3.7046,-3.7054,-3.712,-3.7091,-3.71,-3.7125,-3.7142,-3.7146,-3.7157,-3.7181,-3.7186,-3.7167,-3.7205,-3.7211,-3.7236,-3.7245,-3.7234,-3.7236,-3.7302,-3.7303,-3.7304,-3.7299,0,0,0,0,0,0,-3.7044,-3.7053,-3.7062,-3.7092,-3.7102,-3.7141,-3.7142,-3.7147,-3.7161,-3.7162,-3.7189,-3.7193,-3.7206,-3.7233,-3.7239,-3.7248,-3.7238,-3.7302,-3.7303,-3.7304,-3.7299,-3.73,-3.7301,0,0,0,0,0,-3.7041,-3.7057,-3.7062,-3.707,-3.7113,-3.7142,-3.7147,-3.7163,-3.7162,-3.7171,-3.7187,-3.7192,-3.7243,-3.7235,-3.7242,-3.7252,-3.7301,-3.7302,-3.7304,-3.7299,-3.73,-3.7301,0,0,0,0,0,0,-3.7026,-3.7061,-3.7067,-3.7094,-3.7115,-3.7144,-3.7156,-3.7164,-3.7184,-3.7184,-3.7201,-3.7207,-3.7231,-3.7244,-3.7235,-3.7275,-3.7272,-3.7275,-3.7266,-3.7268,-3.7269,-3.7265,-3.724,0,0,0,0,0,-3.7026,-3.7047,-3.7077,-3.7098,-3.7108,-3.713,-3.7143,-3.7154,-3.7176,-3.7184,-3.7202,-3.7222,-3.7243,-3.7256,-3.7276,-3.7301,-3.7307,-3.7311,-3.7312,-3.7313,-3.7315,-3.733,-3.7333,-3.7308,-3.7308,-3.7308,0,0,-3.7026,-3.7048,-3.706,-3.7095,-3.7113,-3.7134,-3.7137,-3.7159,-3.7175,-3.7187,-3.7213,-3.7226,-3.725,-3.7276,-3.7288,-3.7287,-3.7323,-3.7314,-3.7315,-3.7316,-3.7332,-3.7334,-3.7336,-3.7309,-3.7309,-3.7309,0,0,-3.7037,-3.7056,-3.7076,-3.7094,-3.7122,-3.7137,-3.7142,-3.717,-3.7181,-3.7207,-3.7217,-3.7236,-3.7271,-3.7288,-3.7301,-3.7321,-3.7326,-3.7327,-3.7332,-3.7347,-3.7349,-3.7351,-3.7359,-3.7361,-3.7328,-3.7328,-3.7328,0,-3.7033,-3.7067,-3.7085,-3.7108,-3.7123,-3.7137,-3.7158,-3.7174,-3.7206,-3.7216,-3.7215,-3.7261,-3.7277,-3.7308,-3.7313,-3.7323,-3.7329,-3.7324,-3.7347,-3.7349,-3.7351,-3.7359,-3.7362,-3.7328,-3.7328,-3.7328,-3.7328,0,-3.7061,-3.7084,-3.7097,-3.713,-3.7147,-3.7168,-3.719,-3.7205,-3.7214,-3.7229,-3.7257,-3.7277,-3.7303,-3.7311,-3.7319,-3.7343,-3.7342,-3.7344,-3.7341,-3.7353,-3.7361,-3.7364,-3.7328,-3.7328,-3.7328,-3.7328,0,0,-3.7062,-3.7108,-3.7112,-3.7128,-3.7161,-3.7178,-3.72,-3.7228,-3.7241,-3.7262,-3.7281,-3.7312,-3.7315,-3.7329,-3.734,-3.7353,-3.737,-3.7354,-3.7355,-3.7357,-3.7399,-3.7398,-3.7401,-3.7374,-3.7374,-3.7375,-3.7397,0,-3.7078,-3.712,-3.7139,-3.7172,-3.7194,-3.7209,-3.7228,-3.725,-3.7265,-3.7285,-3.7301,-3.7323,-3.7325,-3.7334,-3.7348,-3.7365,-3.7378,-3.7363,-3.7392,-3.7392,-3.7386,-3.7405,-3.7403,-3.7423,-3.74,-3.7401,-3.7401,0,-3.7102,-3.7127,-3.7163,-3.7195,-3.7205,-3.7222,-3.7249,-3.7269,-3.7294,-3.7304,-3.7322,-3.7333,-3.7356,-3.7352,-3.7385,-3.7375,-3.7388,-3.7398,-3.7399,-3.7402,-3.7397,-3.7409,-3.7429,-3.7433,-3.7406,-3.7405,-3.7405,0,-3.71,-3.7143,-3.717,-3.7184,-3.7221,-3.7233,-3.7249,-3.7274,-3.729,-3.7313,-3.7324,-3.7349,-3.7363,-3.7382,-3.7399,-3.7394,-3.7431,-3.7428,-3.744,-3.7439,-3.7446,-3.7446,-3.747,-3.7454,-3.7454,-3.7454,-3.7454,0,-3.7116,-3.7138,-3.7171,-3.7188,-3.7213,-3.7234,-3.7258,-3.7275,-3.7297,-3.7317,-3.7331,-3.7349,-3.7371,-3.7392,-3.7405,-3.7431,-3.7437,-3.7445,-3.7449,-3.7445,-3.7444,-3.7453,-3.7452,-3.7454,-3.7454,-3.7454,-3.7454,0,-3.7119,-3.7142,-3.7173,-3.7207,-3.7216,-3.7234,-3.7262,-3.7279,-3.7296,-3.7321,-3.7328,-3.7354,-3.738,-3.7399,-3.7432,-3.7441,-3.7469,-3.7472,-3.7461,-3.7463,-3.7474,-3.7473,-3.7505,-3.7511,-3.749,-3.7491,-3.7491,0,-3.7127,-3.7145,-3.7182,-3.7198,-3.7215,-3.7239,-3.7256,-3.7278,-3.7295,-3.7326,-3.7339,-3.7367,-3.739,-3.743,-3.7451,-3.7476,-3.748,-3.749,-3.7484,-3.748,-3.7482,-3.7481,-3.7483,-3.7491,-3.7491,-3.7491,-3.7491,0,-3.7141,-3.7152,-3.7177,-3.7207,-3.7228,-3.7252,-3.7275,-3.7287,-3.7313,-3.7331,-3.7359,-3.7377,-3.7413,-3.7439,-3.7468,-3.7483,-3.7491,-3.7493,-3.7497,-3.7493,-3.7487,-3.7491,-3.7464,-3.7492,-3.7492,-3.7492,-3.7492,-3.7492,-3.7147,-3.7165,-3.7194,-3.7222,-3.7243,-3.7266,-3.7285,-3.7305,-3.7329,-3.7361,-3.7372,-3.74,-3.7426,-3.7466,-3.7481,-3.7504,-3.7504,-3.751,-3.7511,-3.7512,-3.7513,-3.7483,-3.7509,-3.7509,-3.7509,-3.7509,-3.7509,0,-3.7162,-3.7183,-3.7209,-3.7243,-3.7266,-3.7274,-3.7302,-3.7319,-3.7345,-3.737,-3.7393,-3.7426,-3.7453,-3.7477,-3.7505,-3.7518,-3.7523,-3.7525,-3.7524,-3.7528,-3.7511,-3.7505,-3.7521,-3.7521,-3.7521,-3.7521,-3.7521,-3.7521,-3.7173,-3.7203,-3.7218,-3.7259,-3.7279,-3.7309,-3.7325,-3.7346,-3.7366,-3.7402,-3.7426,-3.7442,-3.7467,-3.7497,-3.7522,-3.7528,-3.7538,-3.7539,-3.7546,-3.753,-3.7529,-3.7527,-3.7522,-3.7541,-3.7541,-3.7562,-3.7562,-3.7562]}]]